IRIDIUM 140

Last updated on Fri Sep 11 2026 00:03:06 GMT+0000 (Coordinated Universal Time)

1 43252U 18030D 26253.53211912 .00000106 00000+0 30806-4 0 9997 2 43252 86.3907 254.7340 0002324 89.0463 271.0999 14.34218106442420
UTC large
Height (km)
Speed (km/s)
/
Latitude / Longitude
Inclination (degrees)
Orbital Period (minutes)
Azimuth
Elevation
Range (km)
Doppler Factor

Next 0 passes for location: London (51.5072 / 0.1276)

No passes found over London.
IRIDIUM 140